Quakertown, PA

5:15 AM EDT on May 25, 2017 (GMT -0400)
Quakertown

Weather History for KUKT - September, 2012

Change the Weather History Date:

Sunday, September 2, 2012

  Actual Average (KABE) Record (KABE)
Temperature  
Mean Temperature 72 °F -  
Max Temperature 77 °F 79 °F 99 °F (1953)
Min Temperature 66 °F 59 °F 44 °F (1949)
Cooling Degree Days 6    
Growing Degree Days 22 (Base 50)    
Moisture  
Dew Point 72 °F    
Average Humidity 96    
Maximum Humidity 100    
Minimum Humidity 78    
Precipitation  
Precipitation 0.00 in - - ()
Sea Level Pressure  
Sea Level Pressure 30.07 in    
Wind  
Wind Speed 1 mph (ESE)    
Max Wind Speed 8 mph    
Max Gust Speed -    
Visibility 8 miles    
Events      
Averages and records for this station are not official NWS values.
T = Trace of Precipitation, MM = Missing Value Source: NWS Daily Summary

Daily Weather History Graph

Daily Weather History Graph

Search for Another Location

Airport or City:

Trip Planner

Search our weather history database for the weather conditions in past years. The results will help you decide how hot, cold, wet, or windy it might be!

Date:

Astronomy

Sep. 02, 2012 Rise Set
Actual Time 6:30 AM EDT 7:31 PM EDT
Civil Twilight 6:02 AM EDT 7:58 PM EDT
Nautical Twilight 5:29 AM EDT 8:32 PM EDT
Astronomical Twilight 4:54 AM EDT 9:06 PM EDT
Moon 8:16 PM EDT (9/2) 8:37 AM EDT (9/2)
Length of Visible Light 13h 56m
Length of Day
13h 00m
Waning Gibbous, 95% of the Moon is Illuminated
Sep 2
Waning Gibbous
Sep 8
Last Quarter
Sep 15
New
Sep 22
First Quarter
Sep 29
Full

Hourly Weather History & Observations

Time (EDT) Temp. Dew Point Humidity Pressure Visibility Wind Dir Wind Speed Gust Speed Precip Events Conditions
12:00 AM 68.0 °F 68.0 °F 100% 30.07 in 10.0 mi Calm Calm - N/A   Clear
12:20 AM 68.0 °F 68.0 °F 100% 30.07 in 10.0 mi Calm Calm - N/A   Clear
12:35 AM 68.0 °F 68.0 °F 100% 30.07 in 10.0 mi Calm Calm - N/A   Clear
1:00 AM 68.0 °F 68.0 °F 100% 30.07 in 10.0 mi Calm Calm - N/A   Clear
1:15 AM 68.0 °F 68.0 °F 100% 30.06 in 9.0 mi Calm Calm - N/A   Clear
1:40 AM 68.0 °F - N/A% 30.06 in 8.0 mi Calm Calm - N/A   Clear
1:55 AM 66.2 °F - N/A% 30.07 in 6.0 mi Calm Calm - N/A   Scattered Clouds
2:20 AM 66.2 °F - N/A% 30.08 in 5.0 mi Calm Calm - N/A   Mostly Cloudy
2:35 AM 68.0 °F - N/A% 30.07 in 6.0 mi Calm Calm - N/A   Overcast
3:00 AM 68.0 °F - N/A% 30.07 in 6.0 mi Calm Calm - N/A   Overcast
3:20 AM 69.8 °F - N/A% 30.06 in 5.0 mi Calm Calm - N/A   Overcast
3:40 AM 69.8 °F - N/A% 30.06 in 5.0 mi Calm Calm - N/A   Overcast
4:00 AM 69.8 °F - N/A% 30.07 in 4.0 mi Calm Calm - N/A   Unknown
4:20 AM 69.8 °F - N/A% 30.07 in 4.0 mi Calm Calm - N/A   Overcast
4:40 AM 69.8 °F - N/A% 30.07 in 5.0 mi Calm Calm - N/A   Overcast
4:55 AM 69.8 °F - N/A% 30.07 in 5.0 mi Calm Calm - N/A   Overcast
5:20 AM 71.6 °F - N/A% 30.06 in 5.0 mi Calm Calm - N/A   Overcast
5:35 AM 69.8 °F - N/A% 30.06 in 5.0 mi East 4.6 mph - N/A   Mostly Cloudy
6:00 AM 69.8 °F - N/A% 30.06 in 5.0 mi East 3.5 mph - N/A   Mostly Cloudy
6:15 AM 71.6 °F - N/A% 30.07 in 6.0 mi Calm Calm - N/A   Overcast
6:40 AM 71.6 °F - N/A% 30.07 in 6.0 mi East 4.6 mph - N/A   Overcast
7:00 AM 71.6 °F - N/A% 30.07 in 5.0 mi Calm Calm - N/A   Overcast
7:20 AM 71.6 °F - N/A% 30.08 in 5.0 mi Calm Calm - N/A   Overcast
7:40 AM 71.6 °F 71.6 °F 100% 30.08 in 6.0 mi Calm Calm - N/A   Overcast
8:20 AM 71.6 °F 71.6 °F 100% 30.08 in 7.0 mi Calm Calm - N/A   Overcast
8:40 AM 73.4 °F 73.4 °F 100% 30.08 in 8.0 mi Calm Calm - N/A   Overcast
9:00 AM 73.4 °F 73.4 °F 100% 30.08 in 9.0 mi East 5.8 mph - N/A   Overcast
9:20 AM 73.4 °F 73.4 °F 100% 30.08 in 9.0 mi East 5.8 mph - N/A   Overcast
9:40 AM 73.4 °F 73.4 °F 100% 30.08 in 9.0 mi East 5.8 mph - N/A   Overcast
10:00 AM 75.2 °F 73.4 °F 94% 30.09 in 9.0 mi ESE 3.5 mph - N/A   Overcast
10:20 AM 73.4 °F 73.4 °F 100% 30.10 in 10.0 mi Calm Calm - N/A   Overcast
10:40 AM 75.2 °F 73.4 °F 94% 30.09 in 10.0 mi Calm Calm - N/A   Overcast
11:00 AM 75.2 °F 73.4 °F 94% 30.09 in 10.0 mi ESE 5.8 mph - N/A   Mostly Cloudy
11:15 AM 75.2 °F 73.4 °F 94% 30.09 in 9.0 mi Calm Calm - N/A   Mostly Cloudy
11:40 AM 75.2 °F 73.4 °F 94% 30.10 in 10.0 mi SE 3.5 mph - N/A   Overcast
12:20 PM 75.2 °F 73.4 °F 94% 30.08 in 9.0 mi ESE 4.6 mph - N/A   Mostly Cloudy
12:40 PM 77.0 °F 73.4 °F 89% 30.08 in 10.0 mi ESE 3.5 mph - N/A   Scattered Clouds
1:00 PM 77.0 °F 71.6 °F 83% 30.08 in 10.0 mi SSE 6.9 mph - N/A   Mostly Cloudy
1:20 PM 77.0 °F 71.6 °F 83% 30.08 in 10.0 mi SSE 3.5 mph - N/A   Mostly Cloudy
1:40 PM 77.0 °F 69.8 °F 78% 30.08 in 10.0 mi Calm Calm - N/A   Mostly Cloudy
2:00 PM 77.0 °F 69.8 °F 78% 30.07 in 10.0 mi SSE 4.6 mph - N/A   Mostly Cloudy
2:20 PM 77.0 °F 69.8 °F 78% 30.07 in 10.0 mi Calm Calm - N/A   Mostly Cloudy
2:40 PM 77.0 °F 71.6 °F 83% 30.07 in 9.0 mi South 8.1 mph - N/A   Mostly Cloudy
3:00 PM 73.4 °F 73.4 °F 100% 30.07 in 8.0 mi Calm Calm - N/A   Overcast
3:20 PM 73.4 °F 73.4 °F 100% 30.06 in 10.0 mi SSE 4.6 mph - N/A   Overcast
3:35 PM 73.4 °F 71.6 °F 94% 30.05 in 10.0 mi SSE 4.6 mph - N/A   Mostly Cloudy
4:00 PM 73.4 °F 71.6 °F 94% 30.05 in 8.0 mi Calm Calm - N/A   Mostly Cloudy
4:15 PM 73.4 °F 73.4 °F 100% 30.04 in 10.0 mi Calm Calm - N/A   Overcast
4:40 PM 73.4 °F 73.4 °F 100% 30.04 in 9.0 mi Calm Calm - N/A   Overcast
5:00 PM 73.4 °F 73.4 °F 100% 30.04 in 10.0 mi Calm Calm - N/A   Overcast
5:20 PM 73.4 °F 73.4 °F 100% 30.04 in 10.0 mi Calm Calm - N/A   Mostly Cloudy
5:40 PM 73.4 °F 73.4 °F 100% 30.04 in 10.0 mi Calm Calm - N/A   Mostly Cloudy
6:00 PM 73.4 °F 71.6 °F 94% 30.04 in 10.0 mi Calm Calm - N/A   Scattered Clouds
6:20 PM 73.4 °F 71.6 °F 94% 30.04 in 10.0 mi Calm Calm - N/A   Mostly Cloudy
6:40 PM 73.4 °F 71.6 °F 94% 30.05 in 10.0 mi Calm Calm - N/A   Mostly Cloudy
7:00 PM 73.4 °F 71.6 °F 94% 30.06 in 8.0 mi Calm Calm - N/A   Overcast
7:20 PM 73.4 °F 73.4 °F 100% 30.06 in 10.0 mi Calm Calm - N/A   Mostly Cloudy
7:40 PM 71.6 °F 71.6 °F 100% 30.06 in 10.0 mi Calm Calm - N/A   Mostly Cloudy
7:55 PM 71.6 °F 71.6 °F 100% 30.06 in 10.0 mi Calm Calm - N/A   Mostly Cloudy
8:20 PM 71.6 °F 71.6 °F 100% 30.07 in 10.0 mi Calm Calm - N/A   Scattered Clouds
8:40 PM 71.6 °F 71.6 °F 100% 30.07 in 10.0 mi Calm Calm - N/A   Mostly Cloudy
9:00 PM 71.6 °F 71.6 °F 100% 30.07 in 10.0 mi Calm Calm - N/A   Overcast
9:20 PM 71.6 °F 71.6 °F 100% 30.08 in 10.0 mi Calm Calm - N/A   Overcast
9:40 PM 71.6 °F 71.6 °F 100% 30.09 in 10.0 mi Calm Calm - N/A   Overcast
9:55 PM 71.6 °F 71.6 °F 100% 30.09 in 9.0 mi Calm Calm - N/A   Overcast
10:20 PM 71.6 °F 71.6 °F 100% 30.09 in 9.0 mi Calm Calm - N/A   Overcast
10:35 PM 71.6 °F 71.6 °F 100% 30.09 in 8.0 mi Calm Calm - N/A   Mostly Cloudy
11:00 PM 71.6 °F 71.6 °F 100% 30.09 in 9.0 mi Calm Calm - N/A   Mostly Cloudy
11:20 PM 71.6 °F 71.6 °F 100% 30.10 in 10.0 mi Calm Calm - N/A   Overcast
11:40 PM 71.6 °F 71.6 °F 100% 30.09 in 10.0 mi Calm Calm - N/A   Overcast